• En España
  • Lista de países
  • Para 7 días
  • Temperatura del agua
  • Mapa Satelital
  • El tiempo en el mapa
  • Informadores
  • user-avatar
    Iniciar sesión

    Tiempo cada hora Sredniy Alat

    Hoy, 15 Octubre, Lunes

    Tiempo Temperatura Precipitaciones Viento Presión Humedad
    00:00 +3°C° 0 mm 1 mps 754 mmHg 70%
    01:00 +3°C° 0 mm 1 mps 753 mmHg 70%
    02:00 +3°C° 0 mm 1 mps 753 mmHg 70%
    03:00 +3°C° 0 mm 1 mps 753 mmHg 70%
    04:00 +3°C° 0 mm 1 mps 753 mmHg 70%
    05:00 +3°C° 0 mm 1 mps 753 mmHg 70%
    06:00 +3°C° 0 mm 1 mps 753 mmHg 71%
    07:00 +3°C° 0 mm 2 mps 753 mmHg 72%
    08:00 +3°C° 0 mm 2 mps 753 mmHg 73%
    09:00 +3°C° 0 mm 2 mps 753 mmHg 71%
    10:00 +3°C° 0.1 mm 2 mps 753 mmHg 73%
    11:00 +4°C° 0.1 mm 2 mps 753 mmHg 75%
    12:00 +3°C° 0.1 mm 3 mps 753 mmHg 77%
    13:00 +4°C° 0 mm 2 mps 753 mmHg 80%
    14:00 +4°C° 0 mm 2 mps 753 mmHg 82%
    15:00 +5°C° 0 mm 2 mps 753 mmHg 85%
    16:00 +5°C° 0 mm 2 mps 753 mmHg 88%
    17:00 +5°C° 0 mm 2 mps 753 mmHg 91%
    18:00 +5°C° 0 mm 2 mps 753 mmHg 94%
    19:00 +6°C° 0 mm 2 mps 752 mmHg 96%
    20:00 +7°C° 0 mm 2 mps 752 mmHg 97%
    21:00 +7°C° 0 mm 2 mps 752 mmHg 98%
    22:00 +8°C° 0 mm 3 mps 752 mmHg 98%
    23:00 +8°C° 0 mm 3 mps 752 mmHg 98%

    Mañana, 16 Octubre, Martes

    Tiempo Temperatura Precipitaciones Viento Presión Humedad
    00:00 +8°C° 0 mm 3 mps 752 mmHg 97%
    01:00 +8°C° 0 mm 3 mps 751 mmHg 97%
    02:00 +7°C° 0 mm 3 mps 751 mmHg 96%
    03:00 +7°C° 0 mm 3 mps 751 mmHg 96%
    04:00 +5°C° 0 mm 3 mps 751 mmHg 96%
    05:00 +5°C° 0 mm 3 mps 751 mmHg 95%
    06:00 +4°C° 0 mm 3 mps 751 mmHg 95%
    07:00 +5°C° 0 mm 3 mps 751 mmHg 92%
    08:00 +7°C° 0 mm 3 mps 751 mmHg 88%
    09:00 +7°C° 0 mm 4 mps 751 mmHg 85%
    10:00 +10°C° 0 mm 3 mps 751 mmHg 80%
    11:00 +11°C° 0 mm 3 mps 751 mmHg 76%
    12:00 +12°C° 0 mm 3 mps 751 mmHg 71%
    13:00 +12°C° 0 mm 3 mps 751 mmHg 71%
    14:00 +13°C° 0 mm 3 mps 751 mmHg 70%
    15:00 +13°C° 0 mm 3 mps 751 mmHg 70%
    16:00 +11°C° 0 mm 3 mps 751 mmHg 76%
    17:00 +10°C° 0 mm 3 mps 751 mmHg 81%
    18:00 +9°C° 0 mm 3 mps 751 mmHg 87%
    19:00 +8°C° 0 mm 3 mps 750 mmHg 87%
    20:00 +8°C° 0 mm 3 mps 750 mmHg 87%
    21:00 +8°C° 0 mm 3 mps 750 mmHg 88%
    22:00 +8°C° 0 mm 3 mps 749 mmHg 87%
    23:00 +6°C° 0 mm 4 mps 749 mmHg 87%

    Pasado mañana, 17 Octubre, Miércoles

    Tiempo Temperatura Precipitaciones Viento Presión Humedad
    00:00 +6°C° 0 mm 4 mps 749 mmHg 87%
    01:00 +6°C° 0 mm 4 mps 748 mmHg 85%
    02:00 +6°C° 0 mm 4 mps 748 mmHg 83%
    03:00 +6°C° 0 mm 5 mps 748 mmHg 81%
    04:00 +6°C° 0 mm 5 mps 748 mmHg 84%
    05:00 +5°C° 0 mm 5 mps 748 mmHg 86%
    06:00 +5°C° 0 mm 5 mps 748 mmHg 89%
    07:00 +6°C° 0 mm 5 mps 748 mmHg 86%
    08:00 +7°C° 0 mm 6 mps 748 mmHg 84%
    09:00 +8°C° 0 mm 6 mps 749 mmHg 81%
    10:00 +8°C° 0 mm 6 mps 749 mmHg 76%
    11:00 +8°C° 0 mm 6 mps 750 mmHg 70%
    12:00 +8°C° 0 mm 6 mps 751 mmHg 64%
    13:00 +8°C° 0 mm 6 mps 751 mmHg 63%
    14:00 +8°C° 0 mm 5 mps 752 mmHg 62%
    15:00 +8°C° 0 mm 5 mps 752 mmHg 61%
    16:00 +7°C° 0 mm 4 mps 753 mmHg 66%
    17:00 +6°C° 0 mm 4 mps 753 mmHg 71%
    18:00 +4°C° 0 mm 3 mps 754 mmHg 76%
    19:00 +4°C° 0 mm 3 mps 754 mmHg 78%
    20:00 +4°C° 0 mm 3 mps 754 mmHg 80%
    21:00 +3°C° 0 mm 3 mps 754 mmHg 82%
    22:00 +3°C° 0 mm 3 mps 755 mmHg 84%
    23:00 +2°C° 0 mm 3 mps 755 mmHg 85%

    18 Octubre, Jueves

    Tiempo Temperatura Precipitaciones Viento Presión Humedad
    00:00 +2°C° 0 mm 3 mps 755 mmHg 87%
    01:00 +2°C° 0 mm 3 mps 755 mmHg 88%
    02:00 +2°C° 0 mm 3 mps 755 mmHg 89%
    03:00 +1°C° 0 mm 3 mps 755 mmHg 90%
    04:00 +1°C° 0 mm 3 mps 755 mmHg 91%
    05:00 +1°C° 0 mm 3 mps 755 mmHg 92%
    06:00 +1°C° 0 mm 3 mps 755 mmHg 93%
    07:00 +2°C° 0 mm 3 mps 755 mmHg 87%
    08:00 +3°C° 0 mm 3 mps 755 mmHg 82%
    09:00 +4°C° 0 mm 3 mps 755 mmHg 76%
    10:00 +5°C° 0 mm 3 mps 754 mmHg 70%
    11:00 +6°C° 0 mm 4 mps 754 mmHg 64%
    12:00 +8°C° 0 mm 4 mps 754 mmHg 58%
    13:00 +8°C° 0 mm 4 mps 753 mmHg 57%
    14:00 +9°C° 0 mm 3 mps 753 mmHg 57%
    15:00 +9°C° 0 mm 3 mps 753 mmHg 56%
    16:00 +8°C° 0 mm 3 mps 753 mmHg 60%
    17:00 +7°C° 0 mm 3 mps 752 mmHg 65%
    18:00 +6°C° 0 mm 2 mps 752 mmHg 69%
    19:00 +6°C° 0 mm 2 mps 752 mmHg 71%
    20:00 +5°C° 0 mm 3 mps 751 mmHg 73%
    21:00 +7°C° 0 mm 3 mps 751 mmHg 75%
    22:00 +7°C° 0 mm 3 mps 751 mmHg 78%
    23:00 +7°C° 0 mm 3 mps 751 mmHg 82%

    19 Octubre, Viernes

    Tiempo Temperatura Precipitaciones Viento Presión Humedad
    00:00 +7°C° 0 mm 3 mps 750 mmHg 86%
    01:00 +5°C° 0.1 mm 3 mps 750 mmHg 89%
    02:00 +5°C° 0.1 mm 3 mps 750 mmHg 92%
    03:00 +5°C° 0.1 mm 3 mps 750 mmHg 95%
    04:00 +5°C° 0 mm 3 mps 750 mmHg 96%
    05:00 +5°C° 0 mm 3 mps 749 mmHg 96%
    06:00 +5°C° 0 mm 3 mps 749 mmHg 96%
    07:00 +5°C° 0 mm 3 mps 749 mmHg 93%
    08:00 +7°C° 0 mm 3 mps 749 mmHg 91%
    09:00 +8°C° 0 mm 3 mps 749 mmHg 88%
    10:00 +8°C° 0 mm 4 mps 748 mmHg 83%
    11:00 +10°C° 0 mm 4 mps 748 mmHg 77%
    12:00 +11°C° 0 mm 4 mps 748 mmHg 72%
    13:00 +11°C° 0 mm 4 mps 748 mmHg 72%
    14:00 +11°C° 0 mm 4 mps 747 mmHg 71%
    15:00 +12°C° 0 mm 4 mps 747 mmHg 70%
    16:00 +10°C° 0 mm 4 mps 747 mmHg 75%
    17:00 +8°C° 0 mm 4 mps 747 mmHg 80%
    18:00 +7°C° 0 mm 4 mps 747 mmHg 84%
    19:00 +7°C° 0 mm 4 mps 747 mmHg 86%
    20:00 +7°C° 0 mm 4 mps 747 mmHg 87%
    21:00 +7°C° 0 mm 3 mps 747 mmHg 89%
    22:00 +7°C° 0 mm 3 mps 747 mmHg 90%
    23:00 +7°C° 0 mm 3 mps 747 mmHg 92%

    20 Octubre, Sábado

    Tiempo Temperatura Precipitaciones Viento Presión Humedad
    00:00 +7°C° 0 mm 3 mps 747 mmHg 93%
    01:00 +7°C° 0 mm 3 mps 747 mmHg 94%
    02:00 +7°C° 0 mm 3 mps 748 mmHg 94%
    03:00 +7°C° 0 mm 3 mps 748 mmHg 94%
    04:00 +7°C° 0 mm 3 mps 748 mmHg 95%
    05:00 +5°C° 0 mm 3 mps 748 mmHg 96%
    06:00 +4°C° 0 mm 3 mps 748 mmHg 97%
    07:00 +5°C° 0 mm 3 mps 748 mmHg 92%
    08:00 +7°C° 0 mm 3 mps 748 mmHg 87%
    09:00 +7°C° 0 mm 3 mps 748 mmHg 83%
    10:00 +8°C° 0 mm 3 mps 748 mmHg 75%
    11:00 +8°C° 0 mm 4 mps 748 mmHg 68%
    12:00 +10°C° 0 mm 4 mps 748 mmHg 61%
    13:00 +10°C° 0 mm 3 mps 748 mmHg 60%
    14:00 +10°C° 0 mm 3 mps 748 mmHg 59%
    15:00 +9°C° 0 mm 3 mps 748 mmHg 58%
    16:00 +8°C° 0 mm 3 mps 748 mmHg 63%
    17:00 +7°C° 0 mm 2 mps 748 mmHg 68%
    18:00 +6°C° 0 mm 2 mps 748 mmHg 72%
    19:00 +5°C° 0 mm 2 mps 748 mmHg 74%
    20:00 +5°C° 0 mm 2 mps 748 mmHg 76%
    21:00 +4°C° 0 mm 2 mps 748 mmHg 78%
    22:00 +5°C° 0 mm 1 mps 748 mmHg 80%
    23:00 +5°C° 0 mm 1 mps 748 mmHg 81%
    Mostrar más